FW6612 Weather Reports


time (UTC)temp
C
wind
direction
speed
KPH
gust
KPH
rain 1hr
cm
rain 24hr
cm
rain mn
cm
humidity
%
barometer
mb
20260502170520 30 118 16.1 20.9 0.00 0.00 0.00 29 1020.5
20260502163525 31 117 9.7 12.9 0.00 0.00 0.00 28 1020.8
20260502162515 30 131 11.3 12.9 0.00 0.00 0.00 29 1020.3
20260502161523 31 112 11.3 16.1 0.00 0.00 0.00 28 1020.4
20260502160530 30 124 11.3 16.1 0.00 0.00 0.00 29 1020.8
20260502151532 29 104 8.0 12.9 0.00 0.00 0.00 27 1020.2
20260502150521 29 110 6.4 8.0 0.00 0.00 0.00 27 1020.2
20260502130524 20 330 1.6 3.2 0.00 0.00 0.00 32 1018.9
20260502123530 19 326 1.6 3.2 0.00 0.00 0.00 34 1018.6
20260502122519 20 317 1.6 3.2 0.00 0.00 0.00 34 1018.2
20260502121527 18 356 1.6 3.2 0.00 0.00 0.00 35 1018.3
20260502120517 18 53 1.6 1.6 0.00 0.00 0.00 35 1018.2
20260502115605 18 68 1.6 1.6 0.00 0.00 0.00 35 1018.2
20260502113522 19 0.0 0.0 0.00 0.00 0.00 34 1017.8
20260502112530 19 108 1.6 3.2 0.00 0.00 0.00 34 1018.0
20260502111539 20 106 1.6 3.2 0.00 0.00 0.00 32 1017.5
20260502110527 21 349 3.2 4.8 0.00 0.00 0.00 30 1017.8
20260502105537 21 33 3.2 3.2 0.00 0.00 0.00 30 1018.1
20260502104525 21 352 3.2 4.8 0.00 0.00 0.00 30 1017.8
20260502103533 21 360 3.2 6.4 0.00 0.00 0.00 30 1017.5
20260502102522 21 352 4.8 6.4 0.00 0.00 0.00 30 1018.0
20260502101530 21 21 4.8 6.4 0.00 0.00 0.00 30 1016.8
20260502100519 21 1 3.2 4.8 0.00 0.00 0.00 30 1017.5
20260502090530 22 345 3.2 6.4 0.00 0.00 0.00 27 1017.2
20260502071525 23 342 3.2 4.8 0.00 0.00 0.00 28 1016.4
20260502070515 23 326 1.6 3.2 0.00 0.00 0.00 28 1016.7
20260502065523 23 255 1.6 3.2 0.00 0.00 0.00 27 1016.2
20260502064531 23 165 3.2 4.8 0.00 0.00 0.00 27 1016.0
20260502063520 23 161 3.2 4.8 0.00 0.00 0.00 26 1016.5
20260502062528 25 186 3.2 4.8 0.00 0.00 0.00 24 1015.8
20260502061538 25 187 3.2 4.8 0.00 0.00 0.00 24 1015.7
20260502060526 25 211 4.8 6.4 0.00 0.00 0.00 25 1015.8
20260502055515 25 213 6.4 9.7 0.00 0.00 0.00 25 1015.6
20260502054523 25 222 6.4 9.7 0.00 0.00 0.00 25 1015.6
20260502053531 25 218 8.0 9.7 0.00 0.00 0.00 25 1015.9
20260502052520 26 230 8.0 9.7 0.00 0.00 0.00 25 1015.9
20260502051528 26 228 8.0 9.7 0.00 0.00 0.00 25 1015.3
20260502050518 26 239 6.4 9.7 0.00 0.00 0.00 25 1015.2
20260502045525 26 246 6.4 8.0 0.00 0.00 0.00 25 1015.6
20260502044535 26 256 4.8 8.0 0.00 0.00 0.00 25 1015.9
20260502043523 26 268 4.8 4.8 0.00 0.00 0.00 25 1015.1
20260502042531 26 235 4.8 4.8 0.00 0.00 0.00 25 1015.1
20260502041520 26 232 3.2 4.8 0.00 0.00 0.00 24 1015.2
20260502040529 27 210 3.2 6.4 0.00 0.00 0.00 24 1015.4
20260502035517 27 198 3.2 4.8 0.00 0.00 0.00 24 1014.8
20260502034526 27 210 3.2 3.2 0.00 0.00 0.00 23 1015.0
20260502033515 27 221 3.2 3.2 0.00 0.00 0.00 22 1015.1
20260502032523 28 206 3.2 3.2 0.00 0.00 0.00 22 1014.8
20260502031551 28 217 3.2 4.8 0.00 0.00 0.00 22 1014.7
20260502030520 28 225 4.8 8.0 0.00 0.00 0.00 22 1014.8
20260502025528 28 239 4.8 6.4 0.00 0.00 0.00 22 1013.8
20260502024518 29 230 4.8 6.4 0.00 0.00 0.00 22 1013.9
20260502023526 29 224 4.8 8.0 0.00 0.00 0.00 22 1013.2
20260502022515 30 231 6.4 11.3 0.00 0.00 0.00 22 1014.2
20260502021523 30 228 8.0 11.3 0.00 0.00 0.00 22 1013.6
20260502020531 30 215 8.0 9.7 0.00 0.00 0.00 22 1014.0
20260502015520 31 221 11.3 17.7 0.00 0.00 0.00 20 1013.7
20260502014528 31 232 11.3 14.5 0.00 0.00 0.00 20 1013.4
20260502013517 32 230 6.4 9.7 0.00 0.00 0.00 20 1014.1
20260502012525 32 201 8.0 12.9 0.00 0.00 0.00 20 1013.8
20260502011533 33 199 8.0 14.5 0.00 0.00 0.00 20 1013.8
20260502010522 33 221 8.0 12.9 0.00 0.00 0.00 20 1013.8
20260502005530 33 197 8.0 11.3 0.00 0.00 0.00 19 1014.3
20260502004519 34 221 6.4 9.7 0.00 0.00 0.00 18 1013.6
20260502003528 33 170 6.4 8.0 0.00 0.00 0.00 20 1014.2
20260502002517 33 200 6.4 9.7 0.00 0.00 0.00 21 1013.6
20260502001525 35 141 6.4 9.7 0.00 0.00 0.00 20 1013.9
20260502000533 34 157 6.4 12.9 0.00 0.00 0.00 22 1014.0
20260501235522 35 128 4.8 8.0 0.00 0.00 0.00 20 1014.0
20260501234530 35 152 8.0 11.3 0.00 0.00 0.00 22 1013.9
20260501233519 34 146 4.8 9.7 0.00 0.00 0.00 22 1013.9
20260501232527 34 164 6.4 8.0 0.00 0.00 0.00 22 1014.5
20260501231516 33 144 6.4 9.7 0.00 0.00 0.00 22 1014.9
20260501230524 35 232 6.4 12.9 0.00 0.00 0.00 22 1014.8
20260501225532 34 231 4.8 11.3 0.00 0.00 0.00 22 1014.8
20260501224521 34 198 4.8 8.0 0.00 0.00 0.00 22 1014.9
20260501223549 34 230 4.8 11.3 0.00 0.00 0.00 22 1014.6
20260501222518 33 245 9.7 16.1 0.00 0.00 0.00 22 1015.2
20260501221526 33 202 6.4 8.0 0.00 0.00 0.00 22 1014.7
20260501220516 33 187 8.0 11.3 0.00 0.00 0.00 23 1015.6
20260501215523 32 208 8.0 11.3 0.00 0.00 0.00 24 1015.0
20260501214531 32 181 8.0 12.9 0.00 0.00 0.00 24 1015.8
20260501213521 33 183 6.4 8.0 0.00 0.00 0.00 24 1015.7
20260501212529 33 291 8.0 16.1 0.00 0.00 0.00 24 1016.2
20260501211518 32 168 6.4 9.7 0.00 0.00 0.00 25 1016.0
20260501210526 33 270 6.4 11.3 0.00 0.00 0.00 23 1016.1
20260501205515 32 181 8.0 11.3 0.00 0.00 0.00 24 1016.2
20260501204543 33 210 8.0 11.3 0.00 0.00 0.00 23 1015.8
20260501203531 32 208 4.8 9.7 0.00 0.00 0.00 24 1016.3
20260501202541 31 231 8.0 12.9 0.00 0.00 0.00 24 1016.5
20260501201529 31 260 6.4 9.7 0.00 0.00 0.00 24 1017.2
20260501200538 31 262 8.0 12.9 0.00 0.00 0.00 25 1016.4
20260501195526 31 223 11.3 14.5 0.00 0.00 0.00 27 1016.7
20260501194515 30 224 9.7 16.1 0.00 0.00 0.00 27 1017.3
20260501193603 31 197 6.4 14.5 0.00 0.00 0.00 27 1017.5
20260501192531 31 205 8.0 11.3 0.00 0.00 0.00 28 1017.3
20260501191521 31 184 8.0 11.3 0.00 0.00 0.00 28 1017.6
20260501190529 30 195 6.4 9.7 0.00 0.00 0.00 29 1017.6
20260501185518 30 177 6.4 9.7 0.00 0.00 0.00 29 1017.5
20260501184526 30 212 3.2 6.4 0.00 0.00 0.00 28 1017.1
20260501183515 30 130 3.2 6.4 0.00 0.00 0.00 29 1017.6
20260501182523 30 227 9.7 11.3 0.00 0.00 0.00 29 1018.5
20260501181531 29 195 3.2 6.4 0.00 0.00 0.00 30 1018.1
20260501180540 28 241 8.0 12.9 0.00 0.00 0.00 30 1018.6
20260501175528 28 216 6.4 9.7 0.00 0.00 0.00 31 1018.9
20260501174518 27 263 4.8 8.0 0.00 0.00 0.00 32 1019.1
20260501173526 28 165 4.8 6.4 0.00 0.00 0.00 32 1018.2
20260501172535 28 158 4.8 8.0 0.00 0.00 0.00 33 1019.0